Year,Month,Day,Hour,Minute,Value (Times are PST for temperature in C)
2010,08,29,00,00,12.80
2010,08,29,00,01,12.70
2010,08,29,00,02,12.70
2010,08,29,00,03,12.60
2010,08,29,00,04,12.60
2010,08,29,00,05,12.50
2010,08,29,00,06,12.40
2010,08,29,00,07,12.40
2010,08,29,00,08,12.40
2010,08,29,00,09,12.30
2010,08,29,00,10,12.30
2010,08,29,00,11,12.30
2010,08,29,00,12,12.30
2010,08,29,00,13,12.30
2010,08,29,00,14,12.20
2010,08,29,00,15,12.20
2010,08,29,00,16,12.10
2010,08,29,00,17,12.10
2010,08,29,00,18,12.10
2010,08,29,00,19,12.00
2010,08,29,00,20,12.00
2010,08,29,00,21,11.90
2010,08,29,00,22,11.90
2010,08,29,00,23,11.80
2010,08,29,00,24,11.80
2010,08,29,00,25,11.80
2010,08,29,00,26,11.70
2010,08,29,00,27,11.70
2010,08,29,00,28,11.60
2010,08,29,00,29,11.60
2010,08,29,00,30,11.60
2010,08,29,00,31,11.50
2010,08,29,00,32,11.50
2010,08,29,00,33,11.40
2010,08,29,00,34,11.40
2010,08,29,00,35,11.40
2010,08,29,00,36,11.30
2010,08,29,00,37,11.30
2010,08,29,00,38,11.30
2010,08,29,00,39,11.30
2010,08,29,00,40,11.20
2010,08,29,00,41,11.20
2010,08,29,00,42,11.20
2010,08,29,00,43,11.20
2010,08,29,00,44,11.20
2010,08,29,00,45,11.20
2010,08,29,00,46,11.10
2010,08,29,00,47,11.10
2010,08,29,00,48,11.10
2010,08,29,00,49,11.10
2010,08,29,00,50,11.10
2010,08,29,00,51,11.00
2010,08,29,00,52,11.00
2010,08,29,00,53,11.00
2010,08,29,00,54,11.00
2010,08,29,00,55,11.00
2010,08,29,00,56,10.90
2010,08,29,00,57,10.90
2010,08,29,00,58,10.90
2010,08,29,00,59,10.90
2010,08,29,01,00,10.90
2010,08,29,01,01,10.90
2010,08,29,01,02,10.90
2010,08,29,01,03,10.90
2010,08,29,01,04,10.90
2010,08,29,01,05,10.90
2010,08,29,01,06,10.80
2010,08,29,01,07,10.80
2010,08,29,01,08,10.80
2010,08,29,01,09,10.80
2010,08,29,01,10,10.80
2010,08,29,01,11,10.80
2010,08,29,01,12,10.80
2010,08,29,01,13,10.80
2010,08,29,01,14,10.70
2010,08,29,01,15,10.70
2010,08,29,01,16,10.70
2010,08,29,01,17,10.70
2010,08,29,01,18,10.70
2010,08,29,01,19,10.60
2010,08,29,01,20,10.60
2010,08,29,01,21,10.60
2010,08,29,01,22,10.60
2010,08,29,01,23,10.60
2010,08,29,01,24,10.60
2010,08,29,01,25,10.60
2010,08,29,01,26,10.60
2010,08,29,01,27,10.60
2010,08,29,01,28,10.60
2010,08,29,01,29,10.60
2010,08,29,01,30,10.60
2010,08,29,01,31,10.60
2010,08,29,01,32,10.60
2010,08,29,01,33,10.50
2010,08,29,01,34,10.50
2010,08,29,01,35,10.50
2010,08,29,01,36,10.50
2010,08,29,01,37,10.40
2010,08,29,01,38,10.40
2010,08,29,01,39,10.40
2010,08,29,01,40,10.40
2010,08,29,01,41,10.30
2010,08,29,01,42,10.30
2010,08,29,01,43,10.30
2010,08,29,01,44,10.30
2010,08,29,01,45,10.20
2010,08,29,01,46,10.20
2010,08,29,01,47,10.20
2010,08,29,01,48,10.20
2010,08,29,01,49,10.20
2010,08,29,01,50,10.20
2010,08,29,01,51,10.20
2010,08,29,01,52,10.20
2010,08,29,01,53,10.20
2010,08,29,01,54,10.20
2010,08,29,01,55,10.20
2010,08,29,01,56,10.20
2010,08,29,01,57,10.20
2010,08,29,01,58,10.20
2010,08,29,01,59,10.20
2010,08,29,02,00,10.20
2010,08,29,02,01,10.20
2010,08,29,02,02,10.20
2010,08,29,02,03,10.20
2010,08,29,02,04,10.20
2010,08,29,02,05,10.20
2010,08,29,02,06,10.20
2010,08,29,02,07,10.20
2010,08,29,02,08,10.10
2010,08,29,02,09,10.10
2010,08,29,02,10,10.10
2010,08,29,02,11,10.10
2010,08,29,02,12,10.10
2010,08,29,02,13,10.00
2010,08,29,02,14,10.00
2010,08,29,02,15,10.00
2010,08,29,02,16,10.00
2010,08,29,02,17,9.90
2010,08,29,02,18,9.90
2010,08,29,02,19,9.90
2010,08,29,02,20,9.90
2010,08,29,02,21,9.90
2010,08,29,02,22,9.90
2010,08,29,02,23,9.90
2010,08,29,02,24,9.90
2010,08,29,02,25,9.90
2010,08,29,02,26,9.90
2010,08,29,02,27,9.90
2010,08,29,02,28,9.90
2010,08,29,02,29,9.90
2010,08,29,02,30,9.90
2010,08,29,02,31,9.90
2010,08,29,02,32,9.80
2010,08,29,02,33,9.80
2010,08,29,02,34,9.80
2010,08,29,02,35,9.80
2010,08,29,02,36,9.80
2010,08,29,02,37,9.80
2010,08,29,02,38,9.80
2010,08,29,02,39,9.70
2010,08,29,02,40,9.70
2010,08,29,02,41,9.70
2010,08,29,02,42,9.70
2010,08,29,02,43,9.70
2010,08,29,02,44,9.70
2010,08,29,02,45,9.70
2010,08,29,02,46,9.70
2010,08,29,02,47,9.70
2010,08,29,02,48,9.70
2010,08,29,02,49,9.70
2010,08,29,02,50,9.70
2010,08,29,02,51,9.70
2010,08,29,02,52,9.70
2010,08,29,02,53,9.60
2010,08,29,02,54,9.60
2010,08,29,02,55,9.60
2010,08,29,02,56,9.60
2010,08,29,02,57,9.60
2010,08,29,02,58,9.60
2010,08,29,02,59,9.60
2010,08,29,03,00,9.60
2010,08,29,03,01,9.60
2010,08,29,03,02,9.60
2010,08,29,03,03,9.60
2010,08,29,03,04,9.60
2010,08,29,03,05,9.60
2010,08,29,03,06,9.60
2010,08,29,03,07,9.50
2010,08,29,03,08,9.50
2010,08,29,03,09,9.50
2010,08,29,03,10,9.50
2010,08,29,03,11,9.50
2010,08,29,03,12,9.50
2010,08,29,03,13,9.50
2010,08,29,03,14,9.50
2010,08,29,03,15,9.50
2010,08,29,03,16,9.50
2010,08,29,03,17,9.50
2010,08,29,03,18,9.50
2010,08,29,03,19,9.50
2010,08,29,03,20,9.50
2010,08,29,03,21,9.40
2010,08,29,03,22,9.50
2010,08,29,03,23,9.40
2010,08,29,03,24,9.40
2010,08,29,03,25,9.50
2010,08,29,03,26,9.50
2010,08,29,03,27,9.50
2010,08,29,03,28,9.50
2010,08,29,03,29,9.50
2010,08,29,03,30,9.50
2010,08,29,03,31,9.50
2010,08,29,03,32,9.50
2010,08,29,03,33,9.50
2010,08,29,03,34,9.50
2010,08,29,03,35,9.50
2010,08,29,03,36,9.50
2010,08,29,03,37,9.50
2010,08,29,03,38,9.50
2010,08,29,03,39,9.50
2010,08,29,03,40,9.50
2010,08,29,03,41,9.50
2010,08,29,03,42,9.50
2010,08,29,03,43,9.50
2010,08,29,03,44,9.50
2010,08,29,03,45,9.50
2010,08,29,03,46,9.40
2010,08,29,03,47,9.40
2010,08,29,03,48,9.40
2010,08,29,03,49,9.40
2010,08,29,03,50,9.40
2010,08,29,03,51,9.40
2010,08,29,03,52,9.40
2010,08,29,03,53,9.40
2010,08,29,03,54,9.40
2010,08,29,03,55,9.30
2010,08,29,03,56,9.30
2010,08,29,03,57,9.30
2010,08,29,03,58,9.30
2010,08,29,03,59,9.30
2010,08,29,04,00,9.30
2010,08,29,04,01,9.30
2010,08,29,04,02,9.30
2010,08,29,04,03,9.30
2010,08,29,04,04,9.30
2010,08,29,04,05,9.30
2010,08,29,04,06,9.30
2010,08,29,04,07,9.30
2010,08,29,04,08,9.30
2010,08,29,04,09,9.30
2010,08,29,04,10,9.30
2010,08,29,04,11,9.30
2010,08,29,04,12,9.20
2010,08,29,04,13,9.20
2010,08,29,04,14,9.20
2010,08,29,04,15,9.20
2010,08,29,04,16,9.20
2010,08,29,04,17,9.20
2010,08,29,04,18,9.20
2010,08,29,04,19,9.20
2010,08,29,04,20,9.20
2010,08,29,04,21,9.20
2010,08,29,04,22,9.20
2010,08,29,04,23,9.20
2010,08,29,04,24,9.20
2010,08,29,04,25,9.20
2010,08,29,04,26,9.20
2010,08,29,04,27,9.10
2010,08,29,04,28,9.10
2010,08,29,04,29,9.10
2010,08,29,04,30,9.10
2010,08,29,04,31,9.10
2010,08,29,04,32,9.10
2010,08,29,04,33,9.10
2010,08,29,04,34,9.10
2010,08,29,04,35,9.10
2010,08,29,04,36,9.10
2010,08,29,04,37,9.10
2010,08,29,04,38,9.10
2010,08,29,04,39,9.10
2010,08,29,04,40,9.10
2010,08,29,04,41,9.00
2010,08,29,04,42,9.00
2010,08,29,04,43,9.00
2010,08,29,04,44,9.00
2010,08,29,04,45,9.00
2010,08,29,04,46,9.00
2010,08,29,04,47,9.00
2010,08,29,04,48,9.00
2010,08,29,04,49,9.00
2010,08,29,04,50,9.00
2010,08,29,04,51,9.00
2010,08,29,04,52,9.00
2010,08,29,04,53,9.00
2010,08,29,04,54,8.90
2010,08,29,04,55,8.90
2010,08,29,04,56,8.90
2010,08,29,04,57,8.90
2010,08,29,04,58,8.90
2010,08,29,04,59,8.90
2010,08,29,05,00,8.90
2010,08,29,05,01,8.90
2010,08,29,05,02,8.80
2010,08,29,05,03,8.80
2010,08,29,05,04,8.80
2010,08,29,05,05,8.80
2010,08,29,05,06,8.80
2010,08,29,05,07,8.80
2010,08,29,05,08,8.80
2010,08,29,05,09,8.80
2010,08,29,05,10,8.80
2010,08,29,05,11,8.80
2010,08,29,05,12,8.80
2010,08,29,05,13,8.80
2010,08,29,05,14,8.80
2010,08,29,05,15,8.80
2010,08,29,05,16,8.80
2010,08,29,05,17,8.80
2010,08,29,05,18,8.80
2010,08,29,05,19,8.70
2010,08,29,05,20,8.70
2010,08,29,05,21,8.70
2010,08,29,05,22,8.70
2010,08,29,05,23,8.70
2010,08,29,05,24,8.70
2010,08,29,05,25,8.70
2010,08,29,05,26,8.70
2010,08,29,05,27,8.70
2010,08,29,05,28,8.70
2010,08,29,05,29,8.70
2010,08,29,05,30,8.70
2010,08,29,05,31,8.70
2010,08,29,05,32,8.60
2010,08,29,05,33,8.60
2010,08,29,05,34,8.60
2010,08,29,05,35,8.60
2010,08,29,05,36,8.60
2010,08,29,05,37,8.60
2010,08,29,05,38,8.60
2010,08,29,05,39,8.60
2010,08,29,05,40,8.60
2010,08,29,05,41,8.60
2010,08,29,05,42,8.60
2010,08,29,05,43,8.60
2010,08,29,05,44,8.60
2010,08,29,05,45,8.60
2010,08,29,05,46,8.60
2010,08,29,05,47,8.60
2010,08,29,05,48,8.60
2010,08,29,05,49,8.60
2010,08,29,05,50,8.60
2010,08,29,05,51,8.60
2010,08,29,05,52,8.60
2010,08,29,05,53,8.50
2010,08,29,05,54,8.50
2010,08,29,05,55,8.60
2010,08,29,05,56,8.60
2010,08,29,05,57,8.50
2010,08,29,05,58,8.50
2010,08,29,05,59,8.60
2010,08,29,06,00,8.60
2010,08,29,06,01,8.60
2010,08,29,06,02,8.60
2010,08,29,06,03,8.60
2010,08,29,06,04,8.60
2010,08,29,06,05,8.60
2010,08,29,06,06,8.60
2010,08,29,06,07,8.60
2010,08,29,06,08,8.60
2010,08,29,06,09,8.60
2010,08,29,06,10,8.60
2010,08,29,06,11,8.60
2010,08,29,06,12,8.60
2010,08,29,06,13,8.60
2010,08,29,06,14,8.60
2010,08,29,06,15,8.60
2010,08,29,06,16,8.60
2010,08,29,06,17,8.60
2010,08,29,06,18,8.60
2010,08,29,06,19,8.60
2010,08,29,06,20,8.60
2010,08,29,06,21,8.60
2010,08,29,06,22,8.60
2010,08,29,06,23,8.60
2010,08,29,06,24,8.60
2010,08,29,06,25,8.60
2010,08,29,06,26,8.60
2010,08,29,06,27,8.60
2010,08,29,06,28,8.60
2010,08,29,06,29,8.60
2010,08,29,06,30,8.60
2010,08,29,06,31,8.60
2010,08,29,06,32,8.60
2010,08,29,06,33,8.50
2010,08,29,06,34,8.60
2010,08,29,06,35,8.50
2010,08,29,06,36,8.60
2010,08,29,06,37,8.60
2010,08,29,06,38,8.50
2010,08,29,06,39,8.50
2010,08,29,06,40,8.50
2010,08,29,06,41,8.50
2010,08,29,06,42,8.50
2010,08,29,06,43,8.50
2010,08,29,06,44,8.50
2010,08,29,06,45,8.50
2010,08,29,06,46,8.50
2010,08,29,06,47,8.50
2010,08,29,06,48,8.60
2010,08,29,06,49,8.60
2010,08,29,06,50,8.60
2010,08,29,06,51,8.60
2010,08,29,06,52,8.60
2010,08,29,06,53,8.60
2010,08,29,06,54,8.60
2010,08,29,06,55,8.60
2010,08,29,06,56,8.60
2010,08,29,06,57,8.50
2010,08,29,06,58,8.60
2010,08,29,06,59,8.60
2010,08,29,07,00,8.60
2010,08,29,07,01,8.60
2010,08,29,07,02,8.60
2010,08,29,07,03,8.60
2010,08,29,07,04,8.60
2010,08,29,07,05,8.60
2010,08,29,07,06,8.60
2010,08,29,07,07,8.60
2010,08,29,07,08,8.60
2010,08,29,07,09,8.60
2010,08,29,07,10,8.60
2010,08,29,07,11,8.60
2010,08,29,07,12,8.60
2010,08,29,07,13,8.60
2010,08,29,07,14,8.60
2010,08,29,07,15,8.60
2010,08,29,07,16,8.60
2010,08,29,07,17,8.60
2010,08,29,07,18,8.60
2010,08,29,07,19,8.60
2010,08,29,07,20,8.60
2010,08,29,07,21,8.60
2010,08,29,07,22,8.60
2010,08,29,07,23,8.70
2010,08,29,07,24,8.70
2010,08,29,07,25,8.70
2010,08,29,07,26,8.70
2010,08,29,07,27,8.70
2010,08,29,07,28,8.70
2010,08,29,07,29,8.70
2010,08,29,07,30,8.70
2010,08,29,07,31,8.70
2010,08,29,07,32,8.80
2010,08,29,07,33,8.80
2010,08,29,07,34,8.90
2010,08,29,07,35,9.00
2010,08,29,07,36,9.00
2010,08,29,07,37,9.10
2010,08,29,07,38,9.10
2010,08,29,07,39,9.20
2010,08,29,07,40,9.20
2010,08,29,07,41,9.30
2010,08,29,07,42,9.30
2010,08,29,07,43,9.30
2010,08,29,07,44,9.40
2010,08,29,07,45,9.40
2010,08,29,07,46,9.50
2010,08,29,07,47,9.50
2010,08,29,07,48,9.60
2010,08,29,07,49,9.60
2010,08,29,07,50,9.70
2010,08,29,07,51,9.70
2010,08,29,07,52,9.80
2010,08,29,07,53,9.90
2010,08,29,07,54,10.00
2010,08,29,07,55,10.00
2010,08,29,07,56,10.10
2010,08,29,07,57,10.10
2010,08,29,07,58,10.20
2010,08,29,07,59,10.20
2010,08,29,08,00,10.30
2010,08,29,08,01,10.30
2010,08,29,08,02,10.30
2010,08,29,08,03,10.40
2010,08,29,08,04,10.40
2010,08,29,08,05,10.40
2010,08,29,08,06,10.50
2010,08,29,08,07,10.50
2010,08,29,08,08,10.60
2010,08,29,08,09,10.60
2010,08,29,08,10,10.60
2010,08,29,08,11,10.70
2010,08,29,08,12,10.70
2010,08,29,08,13,10.70
2010,08,29,08,14,10.70
2010,08,29,08,15,10.70
2010,08,29,08,16,10.80
2010,08,29,08,17,10.80
2010,08,29,08,18,10.90
2010,08,29,08,19,10.90
2010,08,29,08,20,10.90
2010,08,29,08,21,11.00
2010,08,29,08,22,11.00
2010,08,29,08,23,11.10
2010,08,29,08,24,11.10
2010,08,29,08,25,11.20
2010,08,29,08,26,11.20
2010,08,29,08,27,11.20
2010,08,29,08,28,11.30
2010,08,29,08,29,11.30
2010,08,29,08,30,11.30
2010,08,29,08,31,11.40
2010,08,29,08,32,11.40
2010,08,29,08,33,11.40
2010,08,29,08,34,11.40
2010,08,29,08,35,11.50
2010,08,29,08,36,11.50
2010,08,29,08,37,11.50
2010,08,29,08,38,11.50
2010,08,29,08,39,11.50
2010,08,29,08,40,11.60
2010,08,29,08,41,11.60
2010,08,29,08,42,11.60
2010,08,29,08,43,11.70
2010,08,29,08,44,11.70
2010,08,29,08,45,11.70
2010,08,29,08,46,11.70
2010,08,29,08,47,11.80
2010,08,29,08,48,11.80
2010,08,29,08,49,11.80
2010,08,29,08,50,11.80
2010,08,29,08,51,11.80
2010,08,29,08,52,11.80
2010,08,29,08,53,11.90
2010,08,29,08,54,11.90
2010,08,29,08,55,11.90
2010,08,29,08,56,11.90
2010,08,29,08,57,11.90
2010,08,29,08,58,11.90
2010,08,29,08,59,12.00
2010,08,29,09,00,12.00
2010,08,29,09,01,12.00
2010,08,29,09,02,12.10
2010,08,29,09,03,12.10
2010,08,29,09,04,12.10
2010,08,29,09,05,12.10
2010,08,29,09,06,12.10
2010,08,29,09,07,12.20
2010,08,29,09,08,12.20
2010,08,29,09,09,12.20
2010,08,29,09,10,12.20
2010,08,29,09,11,12.30
2010,08,29,09,12,12.30
2010,08,29,09,13,12.30
2010,08,29,09,14,12.30
2010,08,29,09,15,12.40
2010,08,29,09,16,12.40
2010,08,29,09,17,12.50
2010,08,29,09,18,12.50
2010,08,29,09,19,12.60
2010,08,29,09,20,12.70
2010,08,29,09,21,12.80
2010,08,29,09,22,12.90
2010,08,29,09,23,12.90
2010,08,29,09,24,13.00
2010,08,29,09,25,13.00
2010,08,29,09,26,13.10
2010,08,29,09,27,13.20
2010,08,29,09,28,13.20
2010,08,29,09,29,13.20
2010,08,29,09,30,13.10
2010,08,29,09,31,13.10
2010,08,29,09,32,13.10
2010,08,29,09,33,13.10
2010,08,29,09,34,13.10
2010,08,29,09,35,13.10
2010,08,29,09,36,13.10
2010,08,29,09,37,13.10
2010,08,29,09,38,13.10
2010,08,29,09,39,13.10
2010,08,29,09,40,13.10
2010,08,29,09,41,13.10
2010,08,29,09,42,13.20
2010,08,29,09,43,13.20
2010,08,29,09,44,13.20
2010,08,29,09,45,13.20
2010,08,29,09,46,13.20
2010,08,29,09,47,13.20
2010,08,29,09,48,13.20
2010,08,29,09,49,13.20
2010,08,29,09,50,13.10
2010,08,29,09,51,13.10
2010,08,29,09,52,13.10
2010,08,29,09,53,13.00
2010,08,29,09,54,13.00
2010,08,29,09,55,12.90
2010,08,29,09,56,12.80
2010,08,29,09,57,12.80
2010,08,29,09,58,12.80
2010,08,29,09,59,12.70
2010,08,29,10,00,12.70
2010,08,29,10,01,12.70
2010,08,29,10,02,12.70
2010,08,29,10,03,12.80
2010,08,29,10,04,12.80
2010,08,29,10,05,12.70
2010,08,29,10,06,12.80
2010,08,29,10,07,12.80
2010,08,29,10,08,12.90
2010,08,29,10,09,13.00
2010,08,29,10,10,13.10
2010,08,29,10,11,13.10
2010,08,29,10,12,13.10
2010,08,29,10,13,13.10
2010,08,29,10,14,13.00
2010,08,29,10,15,13.00
2010,08,29,10,16,13.00
2010,08,29,10,17,13.00
2010,08,29,10,18,12.90
2010,08,29,10,19,12.90
2010,08,29,10,20,12.90
2010,08,29,10,21,12.90
2010,08,29,10,22,12.90
2010,08,29,10,23,13.00
2010,08,29,10,24,13.10
2010,08,29,10,25,13.10
2010,08,29,10,26,13.20
2010,08,29,10,27,13.30
2010,08,29,10,28,13.30
2010,08,29,10,29,13.40
2010,08,29,10,30,13.40
2010,08,29,10,31,13.40
2010,08,29,10,32,13.30
2010,08,29,10,33,13.30
2010,08,29,10,34,13.30
2010,08,29,10,35,13.30
2010,08,29,10,36,13.20
2010,08,29,10,37,13.10
2010,08,29,10,38,13.00
2010,08,29,10,39,12.90
2010,08,29,10,40,12.90
2010,08,29,10,41,12.90
2010,08,29,10,42,12.80
2010,08,29,10,43,12.90
2010,08,29,10,44,12.90
2010,08,29,10,45,12.90
2010,08,29,10,46,13.00
2010,08,29,10,47,13.10
2010,08,29,10,48,13.10
2010,08,29,10,49,13.20
2010,08,29,10,50,13.30
2010,08,29,10,51,13.30
2010,08,29,10,52,13.40
2010,08,29,10,53,13.40
2010,08,29,10,54,13.40
2010,08,29,10,55,13.30
2010,08,29,10,56,13.30
2010,08,29,10,57,13.30
2010,08,29,10,58,13.30
2010,08,29,10,59,13.30
2010,08,29,11,00,13.20
2010,08,29,11,01,13.20
2010,08,29,11,02,13.20
2010,08,29,11,03,13.20
2010,08,29,11,04,13.20
2010,08,29,11,05,13.20
2010,08,29,11,06,13.20
2010,08,29,11,07,13.20
2010,08,29,11,08,13.20
2010,08,29,11,09,13.20
2010,08,29,11,10,13.30
2010,08,29,11,11,13.30
2010,08,29,11,12,13.30
2010,08,29,11,13,13.40
2010,08,29,11,14,13.40
2010,08,29,11,15,13.50
2010,08,29,11,16,13.60
2010,08,29,11,17,13.60
2010,08,29,11,18,13.60
2010,08,29,11,19,13.50
2010,08,29,11,20,13.50
2010,08,29,11,21,13.50
2010,08,29,11,22,13.50
2010,08,29,11,23,13.50
2010,08,29,11,24,13.50
2010,08,29,11,25,13.40
2010,08,29,11,26,13.40
2010,08,29,11,27,13.40
2010,08,29,11,28,13.40
2010,08,29,11,29,13.40
2010,08,29,11,30,13.30
2010,08,29,11,31,13.30
2010,08,29,11,32,13.30
2010,08,29,11,33,13.30
2010,08,29,11,34,13.30
2010,08,29,11,35,13.30
2010,08,29,11,36,13.30
2010,08,29,11,37,13.30
2010,08,29,11,38,13.30
2010,08,29,11,39,13.30
2010,08,29,11,40,13.30
2010,08,29,11,41,13.30
2010,08,29,11,42,13.30
2010,08,29,11,43,13.40
2010,08,29,11,44,13.40
2010,08,29,11,45,13.50
2010,08,29,11,46,13.50
2010,08,29,11,47,13.60
2010,08,29,11,48,13.60
2010,08,29,11,49,13.60
2010,08,29,11,50,13.70
2010,08,29,11,51,13.80
2010,08,29,11,52,13.80
2010,08,29,11,53,13.80
2010,08,29,11,54,13.90
2010,08,29,11,55,13.90
2010,08,29,11,56,14.00
2010,08,29,11,57,14.00
2010,08,29,11,58,14.10
2010,08,29,11,59,14.10
2010,08,29,12,00,14.20
2010,08,29,12,01,14.20
2010,08,29,12,02,14.30
2010,08,29,12,03,14.30
2010,08,29,12,04,14.30
2010,08,29,12,05,14.30
2010,08,29,12,06,14.30
2010,08,29,12,07,14.30
2010,08,29,12,08,14.30
2010,08,29,12,09,14.20
2010,08,29,12,10,14.20
2010,08,29,12,11,14.20
2010,08,29,12,12,14.30
2010,08,29,12,13,14.30
2010,08,29,12,14,14.40
2010,08,29,12,15,14.60
2010,08,29,12,16,14.70
2010,08,29,12,17,14.70
2010,08,29,12,18,14.80
2010,08,29,12,19,14.90
2010,08,29,12,20,14.90
2010,08,29,12,21,15.00
2010,08,29,12,22,15.10
2010,08,29,12,23,15.20
2010,08,29,12,24,15.20
2010,08,29,12,25,15.20
2010,08,29,12,26,15.30
2010,08,29,12,27,15.30
2010,08,29,12,28,15.30
2010,08,29,12,29,15.30
2010,08,29,12,30,15.30
2010,08,29,12,31,15.30
2010,08,29,12,32,15.30
2010,08,29,12,33,15.30
2010,08,29,12,34,15.30
2010,08,29,12,35,15.30
2010,08,29,12,36,15.30
2010,08,29,12,37,15.30
2010,08,29,12,38,15.30
2010,08,29,12,39,15.30
2010,08,29,12,40,15.20
2010,08,29,12,41,15.20
2010,08,29,12,42,15.20
2010,08,29,12,43,15.20
2010,08,29,12,44,15.20
2010,08,29,12,45,15.20
2010,08,29,12,46,15.20
2010,08,29,12,47,15.20
2010,08,29,12,48,15.10
2010,08,29,12,49,15.10
2010,08,29,12,50,15.00
2010,08,29,12,51,15.00
2010,08,29,12,52,15.00
2010,08,29,12,53,15.00
2010,08,29,12,54,15.00
2010,08,29,12,55,15.00
2010,08,29,12,56,15.10
2010,08,29,12,57,15.10
2010,08,29,12,58,15.10
2010,08,29,12,59,15.10
2010,08,29,13,00,15.20
2010,08,29,13,01,15.20
2010,08,29,13,02,15.20
2010,08,29,13,03,15.20
2010,08,29,13,04,15.20
2010,08,29,13,05,15.20
2010,08,29,13,06,15.20
2010,08,29,13,07,15.30
2010,08,29,13,08,15.40
2010,08,29,13,09,15.40
2010,08,29,13,10,15.40
2010,08,29,13,11,15.50
2010,08,29,13,12,15.50
2010,08,29,13,13,15.50
2010,08,29,13,14,15.60
2010,08,29,13,15,15.60
2010,08,29,13,16,15.60
2010,08,29,13,17,15.60
2010,08,29,13,18,15.60
2010,08,29,13,19,15.60
2010,08,29,13,20,15.70
2010,08,29,13,21,15.80
2010,08,29,13,22,15.80
2010,08,29,13,23,15.90
2010,08,29,13,24,16.00
2010,08,29,13,25,16.20
2010,08,29,13,26,16.30
2010,08,29,13,27,16.50
2010,08,29,13,28,16.60
2010,08,29,13,29,16.70
2010,08,29,13,30,16.90
2010,08,29,13,31,17.00
2010,08,29,13,32,17.10
2010,08,29,13,33,17.20
2010,08,29,13,34,17.30
2010,08,29,13,35,17.40
2010,08,29,13,36,17.50
2010,08,29,13,37,17.60
2010,08,29,13,38,17.70
2010,08,29,13,39,17.80
2010,08,29,13,40,17.80
2010,08,29,13,41,17.90
2010,08,29,13,42,17.90
2010,08,29,13,43,17.90
2010,08,29,13,44,17.90
2010,08,29,13,45,18.00
2010,08,29,13,46,18.10
2010,08,29,13,47,18.10
2010,08,29,13,48,18.10
2010,08,29,13,49,18.10
2010,08,29,13,50,18.10
2010,08,29,13,51,18.00
2010,08,29,13,52,18.00
2010,08,29,13,53,17.90
2010,08,29,13,54,17.90
2010,08,29,13,55,17.90
2010,08,29,13,56,18.00
2010,08,29,13,57,18.00
2010,08,29,13,58,18.00
2010,08,29,13,59,18.00
2010,08,29,14,00,18.10
2010,08,29,14,01,18.10
2010,08,29,14,02,18.10
2010,08,29,14,03,18.10
2010,08,29,14,04,18.10
2010,08,29,14,05,18.10
2010,08,29,14,06,18.20
2010,08,29,14,07,18.20
2010,08,29,14,08,18.20
2010,08,29,14,09,18.30
2010,08,29,14,10,18.30
2010,08,29,14,11,18.30
2010,08,29,14,12,18.30
2010,08,29,14,13,18.30
2010,08,29,14,14,18.30
2010,08,29,14,15,18.30
2010,08,29,14,16,18.30
2010,08,29,14,17,18.20
2010,08,29,14,18,18.20
2010,08,29,14,19,18.20
2010,08,29,14,20,18.30
2010,08,29,14,21,18.30
2010,08,29,14,22,18.30
2010,08,29,14,23,18.30
2010,08,29,14,24,18.30
2010,08,29,14,25,18.30
2010,08,29,14,26,18.40
2010,08,29,14,27,18.30
2010,08,29,14,28,18.30
2010,08,29,14,29,18.30
2010,08,29,14,30,18.40
2010,08,29,14,31,18.40
2010,08,29,14,32,18.50
2010,08,29,14,33,18.60
2010,08,29,14,34,18.60
2010,08,29,14,35,18.60
2010,08,29,14,36,18.60
2010,08,29,14,37,18.60
2010,08,29,14,38,18.60
2010,08,29,14,39,18.60
2010,08,29,14,40,18.60
2010,08,29,14,41,18.60
2010,08,29,14,42,18.60
2010,08,29,14,43,18.60
2010,08,29,14,44,18.50
2010,08,29,14,45,18.50
2010,08,29,14,46,18.50
2010,08,29,14,47,18.50
2010,08,29,14,48,18.60
2010,08,29,14,49,18.60
2010,08,29,14,50,18.70
2010,08,29,14,51,18.70
2010,08,29,14,52,18.80
2010,08,29,14,53,18.80
2010,08,29,14,54,18.80
2010,08,29,14,55,18.80
2010,08,29,14,56,18.80
2010,08,29,14,57,18.80
2010,08,29,14,58,18.80
2010,08,29,14,59,18.80
2010,08,29,15,00,18.70
2010,08,29,15,01,18.70
2010,08,29,15,02,18.70
2010,08,29,15,03,18.70
2010,08,29,15,04,18.70
2010,08,29,15,05,18.70
2010,08,29,15,06,18.70
2010,08,29,15,07,18.70
2010,08,29,15,08,18.70
2010,08,29,15,09,18.60
2010,08,29,15,10,18.60
2010,08,29,15,11,18.60
2010,08,29,15,12,18.60
2010,08,29,15,13,18.70
2010,08,29,15,14,18.60
2010,08,29,15,15,18.60
2010,08,29,15,16,18.60
2010,08,29,15,17,18.60
2010,08,29,15,18,18.60
2010,08,29,15,19,18.60
2010,08,29,15,20,18.60
2010,08,29,15,21,18.60
2010,08,29,15,22,18.60
2010,08,29,15,23,18.60
2010,08,29,15,24,18.60
2010,08,29,15,25,18.60
2010,08,29,15,26,18.50
2010,08,29,15,27,18.50
2010,08,29,15,28,18.60
2010,08,29,15,29,18.50
2010,08,29,15,30,18.50
2010,08,29,15,31,18.50
2010,08,29,15,32,18.50
2010,08,29,15,33,18.50
2010,08,29,15,34,18.50
2010,08,29,15,35,18.50
2010,08,29,15,36,18.40
2010,08,29,15,37,18.40
2010,08,29,15,38,18.40
2010,08,29,15,39,18.30
2010,08,29,15,40,18.30
2010,08,29,15,41,18.30
2010,08,29,15,42,18.30
2010,08,29,15,43,18.20
2010,08,29,15,44,18.20
2010,08,29,15,45,18.20
2010,08,29,15,46,18.20
2010,08,29,15,47,18.20
2010,08,29,15,48,18.20
2010,08,29,15,49,18.20
2010,08,29,15,50,18.30
2010,08,29,15,51,18.30
2010,08,29,15,52,18.40
2010,08,29,15,53,18.40
2010,08,29,15,54,18.40
2010,08,29,15,55,18.50
2010,08,29,15,56,18.50
2010,08,29,15,57,18.50
2010,08,29,15,58,18.60
2010,08,29,15,59,18.60
2010,08,29,16,00,18.60
2010,08,29,16,01,18.60
2010,08,29,16,02,18.60
2010,08,29,16,03,18.60
2010,08,29,16,04,18.70
2010,08,29,16,05,18.70
2010,08,29,16,06,18.70
2010,08,29,16,07,18.70
2010,08,29,16,08,18.70
2010,08,29,16,09,18.60
2010,08,29,16,10,18.60
2010,08,29,16,11,18.60
2010,08,29,16,12,18.60
2010,08,29,16,13,18.50
2010,08,29,16,14,18.50
2010,08,29,16,15,18.40
2010,08,29,16,16,18.30
2010,08,29,16,17,18.30
2010,08,29,16,18,18.30
2010,08,29,16,19,18.20
2010,08,29,16,20,18.10
2010,08,29,16,21,18.10
2010,08,29,16,22,18.00
2010,08,29,16,23,17.90
2010,08,29,16,24,17.90
2010,08,29,16,25,17.90
2010,08,29,16,26,17.80
2010,08,29,16,27,17.70
2010,08,29,16,28,17.60
2010,08,29,16,29,17.50
2010,08,29,16,30,17.40
2010,08,29,16,31,17.40
2010,08,29,16,32,17.30
2010,08,29,16,33,17.20
2010,08,29,16,34,17.20
2010,08,29,16,35,17.20
2010,08,29,16,36,17.20
2010,08,29,16,37,17.20
2010,08,29,16,38,17.20
2010,08,29,16,39,17.20
2010,08,29,16,40,17.30
2010,08,29,16,41,17.30
2010,08,29,16,42,17.40
2010,08,29,16,43,17.40
2010,08,29,16,44,17.50
2010,08,29,16,45,17.60
2010,08,29,16,46,17.70
2010,08,29,16,47,17.70
2010,08,29,16,48,17.80
2010,08,29,16,49,17.80
2010,08,29,16,50,17.70
2010,08,29,16,51,17.60
2010,08,29,16,52,17.60
2010,08,29,16,53,17.50
2010,08,29,16,54,17.40
2010,08,29,16,55,17.40
2010,08,29,16,56,17.40
2010,08,29,16,57,17.30
2010,08,29,16,58,17.30
2010,08,29,16,59,17.20
2010,08,29,17,00,17.20
2010,08,29,17,01,17.20
2010,08,29,17,02,17.20
2010,08,29,17,03,17.20
2010,08,29,17,04,17.20
2010,08,29,17,05,17.20
2010,08,29,17,06,17.30
2010,08,29,17,07,17.30
2010,08,29,17,08,17.40
2010,08,29,17,09,17.50
2010,08,29,17,10,17.60
2010,08,29,17,11,17.70
2010,08,29,17,12,17.70
2010,08,29,17,13,17.80
2010,08,29,17,14,17.90
2010,08,29,17,15,18.00
2010,08,29,17,16,18.10
2010,08,29,17,17,18.10
2010,08,29,17,18,18.20
2010,08,29,17,19,18.30
2010,08,29,17,20,18.30
2010,08,29,17,21,18.30
2010,08,29,17,22,18.30
2010,08,29,17,23,18.30
2010,08,29,17,24,18.40
2010,08,29,17,25,18.40
2010,08,29,17,26,18.40
2010,08,29,17,27,18.50
2010,08,29,17,28,18.50
2010,08,29,17,29,18.60
2010,08,29,17,30,18.60
2010,08,29,17,31,18.60
2010,08,29,17,32,18.60
2010,08,29,17,33,18.60
2010,08,29,17,34,18.60